{"data":{"norad_id":54167,"epoch":"2026-09-20T22:00:03.000096Z","epoch_age_seconds":53797,"freshness":"FRESH","line1":"1 54167U 22141L   26263.91670139  .00072730  00000+0  24032-2 0  9999","line2":"2 54167  53.1612 215.5983 0001313 128.3950 122.7678 15.30741619  5793","mean_motion":15.30741619,"eccentricity":0.0001313,"inclination_deg":53.1612,"raan_deg":215.5983,"arg_perigee_deg":128.395,"mean_anomaly_deg":122.7678,"bstar":0.0024032,"rev_number":579,"period_min":94.07204861528,"perigee_km":472.69873671264,"apogee_km":474.49800242069,"semimajor_km":6851.7353695667,"source":"CELESTRAK","updated_at":"2026-09-21T09:00:33.089609Z"}}